If you wish to contribute or participate in the discussions about articles you are invited to join SKYbrary as a registered user

 Actions

Adrar/Touat-Cheikh Sidi Mohamed Belkebir Airport

From SKYbrary Wiki

DAUA
Airport
ICAO: DAUA – IATA: AZR
Summary
Name Adrar/Touat-Cheikh Sidi Mohamed Belkebir Airport
Region Africa
Territory Algeria DZ.gif
Location Adrar, Adrar
Serving Adrar
Elevation 280.111 m <br />919 ft <br />919 ft280.111 m <br />
Coordinates 27° 50' 21.00" N, 0° 11' 7.00" W
Runways
Designator Length Width Surface ROPS
4/22 3000 m9,842.52 ft <br /> 45 m147.638 ft <br /> ASP /


METAR
Observation DAUA 172300Z 03012KT CAVOK 20/M02 Q1016
Station Adrar
Date/Time 17 April 2021 23:00:00
Wind direction 30°
Wind speed 12 kts
Lowest cloud amount clouds and visibility OK
Temperature 20°C
Dew point
Humidity 22%
QNH 1016 hPa
Weather condition n/a

Adrar/Touat-Cheikh Sidi Mohamed Belkebir Airport

ICAO: DAUA IATA: AZR

Description

Touat-Cheikh Sidi Mohamed Belkebir Airport is a public airport located 6 nm southeast of Adrar, the capital of the Adrar province in Algeria.

Maps

Terrain

Loading map...

Airport Layout

Loading map...


Accidents & Serious Incidents at or in vicinity of DAUA

None on SKYbrary